TimeCDT,TemperatureF,Dew PointF,Humidity,Sea Level PressureIn,VisibilityMPH,Wind Direction,Wind SpeedMPH,Gust SpeedMPH,PrecipitationIn,Events,Conditions,WindDirDegrees,DateUTC
12:55 AM,59.4,57.4,93,29.96,10.0,SE,4.6,-,N/A,,Clear,140,2012-11-02 05:55:00
1:55 AM,56.8,56.5,99,29.96,10.0,Calm,Calm,-,N/A,,Clear,0,2012-11-02 06:55:00
2:55 AM,55.0,55.0,100,29.96,10.0,Calm,Calm,-,N/A,,Clear,0,2012-11-02 07:55:00
3:55 AM,55.4,55.4,100,29.96,10.0,SSE,3.5,-,N/A,,Clear,150,2012-11-02 08:55:00
4:55 AM,54.5,54.1,99,29.96,10.0,SSE,3.5,-,N/A,,Clear,160,2012-11-02 09:55:00
5:55 AM,54.7,54.3,99,29.97,10.0,SE,3.5,-,N/A,,Clear,140,2012-11-02 10:55:00
6:55 AM,53.1,52.9,99,29.99,10.0,SE,4.6,-,N/A,,Clear,140,2012-11-02 11:55:00
7:55 AM,51.8,51.8,100,30.00,10.0,SSE,3.5,-,N/A,,Clear,150,2012-11-02 12:55:00
8:55 AM,61.7,61.7,100,30.02,10.0,SSE,4.6,-,N/A,,Clear,150,2012-11-02 13:55:00
9:55 AM,70.2,61.0,73,30.04,10.0,SW,6.9,-,N/A,,Clear,220,2012-11-02 14:55:00
10:55 AM,75.7,60.8,60,30.04,10.0,SW,8.1,-,N/A,,Clear,230,2012-11-02 15:55:00
11:55 AM,79.3,61.0,53,30.04,10.0,WSW,11.5,-,N/A,,Clear,250,2012-11-02 16:55:00
12:55 PM,81.5,61.2,50,30.02,10.0,WSW,9.2,-,N/A,,Clear,240,2012-11-02 17:55:00
1:55 PM,83.5,59.7,44,29.99,10.0,SSW,8.1,-,N/A,,Clear,210,2012-11-02 18:55:00
2:55 PM,84.0,59.4,43,29.97,10.0,SW,8.1,-,N/A,,Clear,230,2012-11-02 19:55:00
3:55 PM,84.7,56.1,37,29.96,10.0,SW,10.4,-,N/A,,Clear,230,2012-11-02 20:55:00
4:55 PM,83.5,59.2,44,29.96,10.0,SW,11.5,-,N/A,,Clear,220,2012-11-02 21:55:00
5:55 PM,80.2,56.8,45,29.96,10.0,SSW,6.9,-,N/A,,Clear,210,2012-11-02 22:55:00
6:55 PM,73.2,59.4,62,29.98,10.0,South,8.1,-,N/A,,Clear,190,2012-11-02 23:55:00
7:55 PM,64.9,58.6,80,29.99,10.0,SSE,6.9,-,N/A,,Clear,160,2012-11-03 00:55:00
8:55 PM,63.7,59.2,85,29.99,10.0,SSE,6.9,-,N/A,,Clear,160,2012-11-03 01:55:00
9:55 PM,63.1,59.0,86,30.00,10.0,SSE,5.8,-,N/A,,Clear,160,2012-11-03 02:55:00
10:55 PM,61.7,58.8,90,30.01,10.0,SSE,5.8,-,N/A,,Clear,160,2012-11-03 03:55:00
11:55 PM,60.3,58.5,94,30.01,10.0,South,5.8,-,N/A,,Clear,170,2012-11-03 04:55:00